Tracking 23940 objects as of 1-Dec-2021
HD Live streaming from Space Station
objects crossing your sky now

PEGASUS DEB

Track PEGASUS DEB now!
10-day predictions


NORAD ID: 24091
Int'l Code: 1994-029EN
Perigee: 546.6 km
Apogee: 663.6 km
Inclination: 82.0 °
Period: 96.6 minutes
Semi major axis: 6976 km
RCS: 0.0602 m2 (small)
Launch date: May 19, 1994
Source: United States (US)
Launch site: AIR FORCE WESTERN TEST RANGE (AFWTR)

Note: This is SATELLITE DEBRIS
aabbcc
Your satellite tracking list
Your tracking list is empty




NASA's NSSDC Master Catalog

Two Line Element Set (TLE):
1 24091U 94029EN  21334.59328079  .00000903  00000-0  85380-4 0  9996
2 24091  81.9994 274.4972 0083821 303.9970 231.3839 14.89989606382019
Source of the keplerian elements: AFSPC